Retour au catalogue

SL-8 R/B

ActifLEO
NORAD 13769·ROCKET BODY·🇷🇺 Russia

Lancé Jan 19, 1983 depuis Plesetsk Cosmodrome

Loading…

Prochains Passages (prochaines 24 heures)

TLE

FraisSource: Space-Track

Époque: Sep 14, 2026, 08:20 UTC

1 13769U 83002J   26257.34756803  .00000032  00000-0  43725-3 0  9996
2 13769  74.0056 215.0649 0136734 291.4342 224.2031 12.21374143946625

Suivez SL-8 R/B en temps réel avec AllMySat

Download on the App Store